TimeCDT,TemperatureF,Dew PointF,Humidity,Sea Level PressureIn,VisibilityMPH,Wind Direction,Wind SpeedMPH,Gust SpeedMPH,PrecipitationIn,Events,Conditions,WindDirDegrees,DateUTC
12:53 AM,75.0,71.1,87,29.98,8.0,ENE,4.6,-,N/A,,Clear,70,2013-09-13 05:53:00
1:53 AM,75.9,72.0,87,29.99,7.0,ENE,4.6,-,N/A,,Clear,70,2013-09-13 06:53:00
2:53 AM,75.0,71.1,87,29.98,7.0,ENE,4.6,-,N/A,,Clear,70,2013-09-13 07:53:00
3:53 AM,75.0,71.1,87,29.98,7.0,ENE,4.6,-,N/A,,Clear,60,2013-09-13 08:53:00
4:53 AM,75.0,71.1,87,29.98,6.0,ENE,3.5,-,N/A,,Clear,60,2013-09-13 09:53:00
5:53 AM,75.0,71.1,87,29.99,7.0,ENE,3.5,-,N/A,,Clear,70,2013-09-13 10:53:00
6:53 AM,75.0,70.0,84,30.00,10.0,Calm,Calm,-,N/A,,Partly Cloudy,0,2013-09-13 11:53:00
7:53 AM,75.0,69.1,82,30.01,10.0,ENE,8.1,-,N/A,,Clear,70,2013-09-13 12:53:00
8:53 AM,75.9,64.9,69,30.03,10.0,East,12.7,-,N/A,,Partly Cloudy,90,2013-09-13 13:53:00
9:53 AM,72.0,64.0,76,30.05,7.0,ENE,9.2,-,0.02,Rain,Light Rain,60,2013-09-13 14:53:00
10:53 AM,72.0,63.0,73,30.06,10.0,East,11.5,18.4,0.05,,Overcast,90,2013-09-13 15:53:00
11:53 AM,78.1,60.1,54,30.04,10.0,ENE,11.5,-,N/A,,Mostly Cloudy,70,2013-09-13 16:53:00
12:53 PM,82.0,59.0,45,30.02,10.0,Variable,4.6,-,N/A,,Partly Cloudy,0,2013-09-13 17:53:00
1:53 PM,86.0,59.0,40,29.99,10.0,ENE,10.4,-,N/A,,Clear,70,2013-09-13 18:53:00
2:53 PM,87.1,59.0,39,29.96,10.0,ENE,8.1,-,N/A,,Clear,60,2013-09-13 19:53:00
3:53 PM,88.0,60.1,39,29.93,10.0,ENE,9.2,-,N/A,,Clear,70,2013-09-13 20:53:00
4:53 PM,89.1,59.0,36,29.91,10.0,Variable,3.5,-,N/A,,Clear,0,2013-09-13 21:53:00
5:53 PM,88.0,57.9,36,29.91,10.0,East,6.9,-,N/A,,Clear,90,2013-09-13 22:53:00
6:53 PM,84.9,59.0,41,29.91,10.0,ESE,5.8,-,N/A,,Clear,110,2013-09-13 23:53:00
7:53 PM,80.1,61.0,52,29.93,10.0,ENE,5.8,-,N/A,,Partly Cloudy,60,2013-09-14 00:53:00
8:53 PM,77.0,61.0,58,29.96,10.0,East,8.1,-,N/A,,Clear,80,2013-09-14 01:53:00
9:53 PM,75.9,54.0,46,29.98,10.0,East,12.7,18.4,N/A,,Clear,90,2013-09-14 02:53:00
10:53 PM,73.0,54.0,51,30.00,10.0,East,8.1,-,N/A,,Clear,80,2013-09-14 03:53:00
11:53 PM,68.0,55.0,63,30.00,10.0,East,8.1,-,N/A,,Clear,80,2013-09-14 04:53:00